• In Schweiz
  • Länderverzeichnis
  • Für 7 Tage
  • Wassertemperatur
  • Satellitenkarten
  • Wetterkarte
  • Widgets
  • user-avatar
    Anmelden

    Stündliche Wetter Beverly

    Heute, 14 August, Dienstag

    Zeit Temperatur Niederschläge Wind Luftdruck Luftfeuchtigkeit
    00:00 +16°C° 0 mm 2 m/S 757 mmHg 90%
    01:00 +16°C° 0 mm 3 m/S 757 mmHg 89%
    02:00 +16°C° 0 mm 3 m/S 758 mmHg 89%
    03:00 +16°C° 0 mm 3 m/S 758 mmHg 88%
    04:00 +16°C° 0 mm 3 m/S 758 mmHg 87%
    05:00 +16°C° 0 mm 3 m/S 758 mmHg 86%
    06:00 +16°C° 0 mm 3 m/S 759 mmHg 85%
    07:00 +17°C° 0 mm 4 m/S 759 mmHg 80%
    08:00 +19°C° 0 mm 4 m/S 759 mmHg 75%
    09:00 +20°C° 0 mm 4 m/S 759 mmHg 69%
    10:00 +21°C° 0 mm 4 m/S 759 mmHg 67%
    11:00 +22°C° 0 mm 4 m/S 759 mmHg 65%
    12:00 +22°C° 0 mm 4 m/S 760 mmHg 62%
    13:00 +22°C° 0 mm 4 m/S 760 mmHg 65%
    14:00 +22°C° 0 mm 5 m/S 760 mmHg 67%
    15:00 +21°C° 0 mm 5 m/S 759 mmHg 70%
    16:00 +21°C° 0,1 mm 5 m/S 759 mmHg 70%
    17:00 +21°C° 0,1 mm 5 m/S 759 mmHg 71%
    18:00 +21°C° 0,1 mm 5 m/S 760 mmHg 72%
    19:00 +20°C° 0 mm 5 m/S 760 mmHg 75%
    20:00 +19°C° 0 mm 4 m/S 760 mmHg 79%
    21:00 +18°C° 0 mm 4 m/S 760 mmHg 82%
    22:00 +18°C° 0 mm 4 m/S 760 mmHg 83%
    23:00 +18°C° 0 mm 4 m/S 760 mmHg 85%

    Morgen, 15 August, Mittwoch

    Zeit Temperatur Niederschläge Wind Luftdruck Luftfeuchtigkeit
    00:00 +17°C° 0 mm 4 m/S 760 mmHg 86%
    01:00 +17°C° 0 mm 4 m/S 760 mmHg 88%
    02:00 +17°C° 0 mm 4 m/S 760 mmHg 89%
    03:00 +16°C° 0 mm 5 m/S 760 mmHg 91%
    04:00 +16°C° 0 mm 5 m/S 760 mmHg 89%
    05:00 +17°C° 0 mm 5 m/S 760 mmHg 88%
    06:00 +17°C° 0 mm 5 m/S 760 mmHg 86%
    07:00 +19°C° 0 mm 5 m/S 760 mmHg 81%
    08:00 +20°C° 0 mm 6 m/S 760 mmHg 76%
    09:00 +21°C° 0 mm 6 m/S 760 mmHg 71%
    10:00 +22°C° 0 mm 6 m/S 759 mmHg 68%
    11:00 +23°C° 0 mm 6 m/S 759 mmHg 65%
    12:00 +24°C° 0 mm 6 m/S 759 mmHg 62%
    13:00 +24°C° 0 mm 6 m/S 759 mmHg 62%
    14:00 +26°C° 0 mm 7 m/S 758 mmHg 62%
    15:00 +26°C° 0 mm 7 m/S 758 mmHg 62%
    16:00 +24°C° 0 mm 8 m/S 758 mmHg 64%
    17:00 +23°C° 0 mm 8 m/S 757 mmHg 66%
    18:00 +23°C° 0 mm 8 m/S 757 mmHg 68%
    19:00 +22°C° 0 mm 8 m/S 757 mmHg 71%
    20:00 +21°C° 0 mm 7 m/S 757 mmHg 74%
    21:00 +21°C° 0 mm 7 m/S 757 mmHg 77%
    22:00 +20°C° 0,3 mm 7 m/S 757 mmHg 79%
    23:00 +20°C° 0,3 mm 7 m/S 756 mmHg 80%

    übermorgen, 16 August, Donnerstag

    Zeit Temperatur Niederschläge Wind Luftdruck Luftfeuchtigkeit
    00:00 +20°C° 0,3 mm 7 m/S 756 mmHg 82%
    01:00 +18°C° 0,3 mm 7 m/S 756 mmHg 83%
    02:00 +17°C° 0,3 mm 6 m/S 756 mmHg 84%
    03:00 +17°C° 0,3 mm 6 m/S 756 mmHg 85%
    04:00 +16°C° 0,1 mm 6 m/S 756 mmHg 84%
    05:00 +16°C° 0,1 mm 5 m/S 756 mmHg 84%
    06:00 +16°C° 0,1 mm 5 m/S 756 mmHg 83%
    07:00 +16°C° 0 mm 5 m/S 757 mmHg 77%
    08:00 +16°C° 0 mm 5 m/S 757 mmHg 71%
    09:00 +17°C° 0 mm 5 m/S 757 mmHg 66%
    10:00 +19°C° 0 mm 5 m/S 757 mmHg 61%
    11:00 +19°C° 0 mm 5 m/S 757 mmHg 56%
    12:00 +20°C° 0 mm 5 m/S 757 mmHg 52%
    13:00 +20°C° 0 mm 5 m/S 757 mmHg 51%
    14:00 +20°C° 0 mm 5 m/S 757 mmHg 51%
    15:00 +20°C° 0 mm 5 m/S 757 mmHg 50%
    16:00 +20°C° 0,1 mm 5 m/S 758 mmHg 53%
    17:00 +19°C° 0,1 mm 5 m/S 758 mmHg 56%
    18:00 +19°C° 0,1 mm 5 m/S 758 mmHg 59%
    19:00 +17°C° 0 mm 5 m/S 759 mmHg 63%
    20:00 +16°C° 0 mm 5 m/S 759 mmHg 67%
    21:00 +14°C° 0 mm 5 m/S 759 mmHg 71%
    22:00 +14°C° 0 mm 5 m/S 760 mmHg 73%
    23:00 +14°C° 0 mm 5 m/S 760 mmHg 75%

    17 August, Freitag

    Zeit Temperatur Niederschläge Wind Luftdruck Luftfeuchtigkeit
    00:00 +13°C° 0 mm 5 m/S 760 mmHg 77%
    01:00 +13°C° 0 mm 5 m/S 760 mmHg 79%
    02:00 +13°C° 0 mm 5 m/S 760 mmHg 80%
    03:00 +12°C° 0 mm 4 m/S 761 mmHg 82%
    04:00 +12°C° 0 mm 5 m/S 761 mmHg 82%
    05:00 +13°C° 0 mm 5 m/S 761 mmHg 81%
    06:00 +13°C° 0 mm 5 m/S 761 mmHg 81%
    07:00 +14°C° 0 mm 5 m/S 762 mmHg 75%
    08:00 +15°C° 0 mm 5 m/S 762 mmHg 68%
    09:00 +16°C° 0 mm 5 m/S 762 mmHg 61%
    10:00 +17°C° 0 mm 6 m/S 762 mmHg 60%
    11:00 +17°C° 0 mm 6 m/S 762 mmHg 58%
    12:00 +19°C° 0 mm 6 m/S 762 mmHg 56%
    13:00 +19°C° 0 mm 6 m/S 762 mmHg 57%
    14:00 +19°C° 0 mm 6 m/S 762 mmHg 59%
    15:00 +19°C° 0 mm 6 m/S 761 mmHg 60%
    16:00 +19°C° 0 mm 6 m/S 761 mmHg 64%
    17:00 +17°C° 0 mm 6 m/S 761 mmHg 68%
    18:00 +17°C° 0 mm 6 m/S 761 mmHg 71%
    19:00 +17°C° 0 mm 6 m/S 761 mmHg 74%
    20:00 +16°C° 0 mm 7 m/S 761 mmHg 76%
    21:00 +16°C° 0 mm 7 m/S 761 mmHg 78%
    22:00 +16°C° 0 mm 7 m/S 761 mmHg 79%
    23:00 +16°C° 0 mm 7 m/S 761 mmHg 80%

    18 August, Samstag

    Zeit Temperatur Niederschläge Wind Luftdruck Luftfeuchtigkeit
    00:00 +16°C° 0 mm 7 m/S 761 mmHg 81%
    01:00 +16°C° 0 mm 7 m/S 761 mmHg 82%
    02:00 +16°C° 0 mm 7 m/S 761 mmHg 83%
    03:00 +16°C° 0 mm 7 m/S 761 mmHg 84%
    04:00 +16°C° 0 mm 7 m/S 761 mmHg 84%
    05:00 +16°C° 0 mm 7 m/S 761 mmHg 84%
    06:00 +16°C° 0 mm 7 m/S 761 mmHg 84%
    07:00 +17°C° 0 mm 7 m/S 761 mmHg 79%
    08:00 +18°C° 0 mm 7 m/S 761 mmHg 75%
    09:00 +20°C° 0 mm 7 m/S 761 mmHg 70%
    10:00 +20°C° 0,1 mm 7 m/S 761 mmHg 72%
    11:00 +21°C° 0,1 mm 6 m/S 761 mmHg 74%
    12:00 +21°C° 0,1 mm 6 m/S 760 mmHg 76%
    13:00 +22°C° 0,1 mm 7 m/S 760 mmHg 73%
    14:00 +22°C° 0,1 mm 7 m/S 761 mmHg 70%
    15:00 +23°C° 0,1 mm 8 m/S 761 mmHg 68%
    16:00 +22°C° 0 mm 7 m/S 761 mmHg 68%
    17:00 +22°C° 0 mm 6 m/S 761 mmHg 69%
    18:00 +21°C° 0 mm 6 m/S 762 mmHg 69%
    19:00 +20°C° 0 mm 5 m/S 762 mmHg 73%
    20:00 +19°C° 0 mm 4 m/S 762 mmHg 78%
    21:00 +18°C° 0 mm 3 m/S 763 mmHg 82%
    22:00 +18°C° 0,2 mm 3 m/S 763 mmHg 84%
    23:00 +18°C° 0,2 mm 3 m/S 763 mmHg 86%

    19 August, Sonntag

    Zeit Temperatur Niederschläge Wind Luftdruck Luftfeuchtigkeit
    00:00 +18°C° 0,2 mm 3 m/S 763 mmHg 89%
    01:00 +19°C° 0,4 mm 3 m/S 762 mmHg 89%
    02:00 +19°C° 0,4 mm 4 m/S 762 mmHg 90%
    03:00 +19°C° 0,4 mm 5 m/S 762 mmHg 90%
    04:00 +19°C° 0,5 mm 5 m/S 761 mmHg 90%
    05:00 +19°C° 0,5 mm 6 m/S 761 mmHg 89%
    06:00 +19°C° 0,5 mm 6 m/S 761 mmHg 88%
    07:00 +20°C° 0,1 mm 6 m/S 761 mmHg 86%
    08:00 +20°C° 0,1 mm 6 m/S 760 mmHg 84%
    09:00 +21°C° 0,1 mm 6 m/S 760 mmHg 82%
    10:00 +21°C° 0,1 mm 6 m/S 760 mmHg 79%
    11:00 +22°C° 0,1 mm 6 m/S 760 mmHg 76%
    12:00 +22°C° 0,1 mm 6 m/S 761 mmHg 73%
    13:00 +23°C° 0 mm 6 m/S 761 mmHg 71%
    14:00 +23°C° 0 mm 6 m/S 761 mmHg 68%
    15:00 +24°C° 0 mm 6 m/S 761 mmHg 65%
    16:00 +23°C° 0 mm 6 m/S 761 mmHg 67%
    17:00 +23°C° 0 mm 6 m/S 761 mmHg 69%
    18:00 +22°C° 0 mm 5 m/S 761 mmHg 71%
    19:00 +21°C° 0 mm 5 m/S 761 mmHg 75%
    20:00 +20°C° 0 mm 5 m/S 761 mmHg 79%
    21:00 +19°C° 0 mm 4 m/S 762 mmHg 83%
    22:00 +19°C° 0 mm 5 m/S 762 mmHg 85%
    23:00 +19°C° 0 mm 5 m/S 762 mmHg 86%
    Mehr zeigen